Location: Arrien
(42.8963°N, 1.0429°E)
Time: 23:14:14
(UTC+00:00)

Cosmos 2058 Rocket - Pass Details

Date: 11 December 2025
Orbit: 603 x 633 km, 82.5° (Epoch: 19 January)

Event Time Altitude Azimuth Distance (km) Brightness Sun altitude
Rises 17:41:40 0° 168° (SSE) 2,909 6.6 -14.1°
Reaches altitude 10° 17:43:59 10° 160° (SSE) 2,009 5.7 -14.5°
Maximum altitude 17:48:08 40° 92° (E) 945 3.5 -15.3°
Enters shadow 17:50:53 19° 33° (NNE) 1,509 4.6 -15.7°
